Showing default

COSMOS 2590, 64527

Orbit data source: Space-Track

COSMOS 2590, 64527 is a payload satellite owned by Resehetnev ISS (CIS) in HEO that was launched on Thu, 19 Jun 2025 UTC via an ANGARA A5 launch vehicle from the Plesetsk Missile And Space Complex (PKMTR). Payload-class satellites include a variety of spacecraft equipped with specific instruments for various scientific and technological missions. These include communications satellites like Starlink; space stations such as the ISS; scientific satellites like the Hubble; Earth observation satellites from companies like Planet Labs, Umbra, and HawkEye 360; GPS; miniature CubeSats for education and research; and military/defense satellites.

Not visible in the next 10 days
Identifier
64527, 2025-131C
Orbit
HEO
Country
Flag of CISCIS
Related business
Manufacturer
RESH/TSKHM
Mission
Operational Defense Technology
Bus & Motor
14F166-SS, Unknown motor
Mass
~200 kg wet, ~200 kg dry
Launch date (UTC)
2025-06-19 (8 months ago)
Launch vehicle
ANGARA A5
Launch site
Plesetsk Missile And Space Complex (PKMTR)
Object type
Payload
Rocket body
Debris
Shape & HBR
Box, 0.3 m
Radar Cross Section
0.375 m²

Expand to show TLE details & history
Last TLE update: 8 hours ago

TLE from 8 hours ago
0 COSMOS 2590
1 64527U 25131C   26036.70960835 -.00000334  00000-0  00000+0 0  9991
2 64527   0.1544 317.4938 3661387 140.8978  40.4459  1.00275570  2292
Epoch: 2026-02-05T17:01Z
TLE epoch observation values (Epoch: 2026-02-05T17:01:50.161Z)
Latitude
-0.05859°
Longitude
145.60206°
Altitude
27,601.694 km
Speed
3.743 km/s
True Right ascension
11h 47m 40s
True Declination
0° 03' 31"
Sunlit
Object was in daylight at epoch
Visualization orbit readout
Latitude
Unknown
Longitude
Unknown
Altitude
Unknown
Speed
Unknown
Apparent Right ascension
Unknown
Apparent Declination
Unknown
Sunlit
N/A
Visualization observer readout
Local Sidereal Time
02:55:49
Azimuth
Unknown
Elevation
Unknown
Doppler factor
Unknown
Orbital elements
Apogee altitude
51,225.092 km
Perigee altitude
20,348.62 km
Semi-major axis
42,164.993 km
Eccentricity
0.36614
Inclination
0.1544°
RAAN
317.4938°
Arg. of periapsis
140.8978°
True anomaly
78.61341°
Mean anomaly
40.4459°
Eccentric anomaly
58.29305°
Mean motion
0.25068 °/min
Orbital period
1,436.11 mins
BSTAR
0
Loading maneuver chart data...
Computing Atmospheric mass density...
Loading historical data...
Loading historical data...
Loading historical data...
Loading historical data...
Loading historical data...
Loading historical data...
Loading historical data...
Other satellites on launch #131 in the year 2025 (2025-06-19 UTC)

Documentation

Showing up to 5 results
|